Time,TemperatureF,DewpointF,PressureIn,WindDirection,WindDirectionDegrees,WindSpeedMPH,WindSpeedGustMPH,Humidity,HourlyPrecipIn,Conditions,Clouds,dailyrainin,SoftwareType,DateUTC
2013-09-08 00:13:00,72.0,70.0,29.89,North,360,1.0,2.0,94,0.00,,,0.00,,2013-09-08 05:13:00,
2013-09-08 00:23:00,72.0,70.0,29.90,North,8,1.0,3.0,94,0.00,,,0.00,,2013-09-08 05:23:00,
2013-09-08 00:52:00,71.0,69.0,29.91,North,350,1.0,2.0,95,0.00,,,0.00,,2013-09-08 05:52:00,
2013-09-08 01:13:00,71.0,69.0,29.91,North,1,0.0,1.0,95,0.00,,,0.00,,2013-09-08 06:13:00,
2013-09-08 01:21:00,71.0,69.0,29.91,North,352,1.0,2.0,95,0.00,,,0.00,,2013-09-08 06:21:00,
2013-09-08 01:42:00,71.0,69.0,29.90,North,4,1.0,2.0,95,0.00,,,0.00,,2013-09-08 06:42:00,
2013-09-08 01:53:00,71.0,69.0,29.91,North,360,1.0,2.0,95,0.00,,,0.00,,2013-09-08 06:53:00,
2013-09-08 02:12:00,70.0,68.0,29.90,NNE,12,1.0,2.0,95,0.00,,,0.00,,2013-09-08 07:12:00,
2013-09-08 02:23:00,71.0,70.0,29.90,North,6,2.0,4.0,96,0.00,,,0.00,,2013-09-08 07:23:00,
2013-09-08 02:42:00,70.0,68.0,29.90,NNE,24,1.0,3.0,95,0.00,,,0.00,,2013-09-08 07:42:00,
2013-09-08 02:52:00,70.0,68.0,29.90,NE,40,1.0,3.0,95,0.00,,,0.00,,2013-09-08 07:52:00,
2013-09-08 03:11:00,70.0,68.0,29.90,North,353,1.0,2.0,95,0.00,,,0.00,,2013-09-08 08:11:00,
2013-09-08 03:22:00,70.0,68.0,29.90,NNE,19,1.0,2.0,94,0.00,,,0.00,,2013-09-08 08:22:00,
2013-09-08 03:42:00,69.0,67.0,29.90,NNE,16,0.0,2.0,94,0.00,,,0.00,,2013-09-08 08:42:00,
2013-09-08 03:52:00,69.0,67.0,29.90,NNE,15,0.0,1.0,94,0.00,,,0.00,,2013-09-08 08:52:00,
2013-09-08 04:11:00,68.0,66.0,29.90,NNE,12,0.0,1.0,94,0.00,,,0.00,,2013-09-08 09:11:00,
2013-09-08 04:22:00,68.0,67.0,29.90,NNE,15,1.0,1.0,95,0.00,,,0.00,,2013-09-08 09:22:00,
2013-09-08 04:54:00,67.0,66.0,29.89,North,8,0.0,1.0,95,0.00,,,0.00,,2013-09-08 09:54:00,
2013-09-08 05:12:00,67.0,66.0,29.89,North,5,0.0,1.0,96,0.00,,,0.00,,2013-09-08 10:12:00,
2013-09-08 05:23:00,66.0,65.0,29.89,NNE,15,1.0,2.0,96,0.00,,,0.00,,2013-09-08 10:23:00,
2013-09-08 05:42:00,66.0,65.0,29.90,NNE,18,1.0,2.0,96,0.00,,,0.00,,2013-09-08 10:42:00,
2013-09-08 05:53:00,66.0,65.0,29.90,North,8,1.0,3.0,96,0.00,,,0.00,,2013-09-08 10:53:00,
2013-09-08 06:12:00,66.0,65.0,29.91,NNE,15,1.0,3.0,97,0.00,,,0.00,,2013-09-08 11:12:00,
2013-09-08 06:21:00,66.0,65.0,29.91,North,8,1.0,3.0,97,0.00,,,0.00,,2013-09-08 11:21:00,
2013-09-08 06:42:00,66.0,65.0,29.91,NNE,22,0.0,2.0,96,0.00,,,0.00,,2013-09-08 11:42:00,
2013-09-08 06:52:00,66.0,65.0,29.91,NNE,25,0.0,1.0,97,0.00,,,0.00,,2013-09-08 11:52:00,
2013-09-08 07:12:00,66.0,65.0,29.92,NNE,15,1.0,2.0,97,0.00,,,0.00,,2013-09-08 12:12:00,
2013-09-08 07:22:00,66.0,65.0,29.91,North,11,0.0,1.0,97,0.00,,,0.00,,2013-09-08 12:22:00,
2013-09-08 07:42:00,66.0,65.0,29.91,ENE,60,0.0,1.0,97,0.00,,,0.00,,2013-09-08 12:42:00,
2013-09-08 07:52:00,67.0,66.0,29.91,East,93,0.0,3.0,97,0.00,,,0.00,,2013-09-08 12:52:00,
2013-09-08 08:12:00,68.0,67.0,29.91,NE,49,1.0,3.0,97,0.00,,,0.00,,2013-09-08 13:12:00,
2013-09-08 08:22:00,69.0,68.0,29.91,NE,53,1.0,4.0,97,0.00,,,0.00,,2013-09-08 13:22:00,
2013-09-08 08:42:00,69.0,68.0,29.92,NNE,15,2.0,5.0,96,0.00,,,0.00,,2013-09-08 13:42:00,
2013-09-08 08:52:00,69.0,68.0,29.93,NE,42,4.0,6.0,95,0.00,,,0.00,,2013-09-08 13:52:00,
2013-09-08 09:11:00,69.0,68.0,29.93,East,96,5.0,8.0,95,0.00,,,0.00,,2013-09-08 14:11:00,
2013-09-08 09:22:00,69.0,67.0,29.94,East,89,3.0,7.0,94,0.00,,,0.00,,2013-09-08 14:22:00,
2013-09-08 09:42:00,69.0,68.0,29.94,East,96,3.0,8.0,95,0.00,,,0.00,,2013-09-08 14:42:00,
2013-09-08 09:52:00,70.0,68.0,29.93,East,79,5.0,9.0,95,0.00,,,0.00,,2013-09-08 14:52:00,
2013-09-08 10:12:00,70.0,68.0,29.93,ENE,67,5.0,11.0,95,0.00,,,0.00,,2013-09-08 15:12:00,
2013-09-08 10:23:00,70.0,68.0,29.93,ESE,103,5.0,8.0,94,0.00,,,0.00,,2013-09-08 15:23:00,
2013-09-08 10:45:00,71.0,69.0,29.94,ESE,108,5.0,12.0,93,0.00,,,0.00,,2013-09-08 15:45:00,
2013-09-08 10:54:00,71.0,69.0,29.95,ESE,120,5.0,11.0,93,0.00,,,0.00,,2013-09-08 15:54:00,
2013-09-08 11:14:00,71.0,69.0,29.94,East,98,7.0,10.0,92,0.00,,,0.00,,2013-09-08 16:14:00,
2013-09-08 11:23:00,71.0,69.0,29.95,ESE,104,4.0,8.0,92,0.00,,,0.00,,2013-09-08 16:23:00,
2013-09-08 11:44:00,72.0,70.0,29.94,SE,135,3.0,8.0,92,0.00,,,0.00,,2013-09-08 16:44:00,
2013-09-08 11:53:00,72.0,69.0,29.93,East,93,3.0,10.0,90,0.00,,,0.00,,2013-09-08 16:53:00,
2013-09-08 12:12:00,72.0,69.0,29.92,ESE,110,5.0,9.0,89,0.00,,,0.00,,2013-09-08 17:12:00,
2013-09-08 12:23:00,72.0,69.0,29.91,ESE,105,5.0,10.0,90,0.00,,,0.00,,2013-09-08 17:23:00,
2013-09-08 12:43:00,73.0,70.0,29.91,East,91,4.0,8.0,89,0.00,,,0.00,,2013-09-08 17:43:00,
2013-09-08 12:53:00,74.0,70.0,29.91,East,99,4.0,10.0,88,0.00,,,0.00,,2013-09-08 17:53:00,
2013-09-08 13:13:00,74.0,70.0,29.91,ESE,106,5.0,10.0,87,0.00,,,0.00,,2013-09-08 18:13:00,
2013-09-08 13:22:00,73.0,69.0,29.92,SE,134,3.0,7.0,88,0.00,,,0.00,,2013-09-08 18:22:00,
2013-09-08 13:42:00,73.0,69.0,29.93,East,82,4.0,8.0,88,0.00,,,0.00,,2013-09-08 18:42:00,
2013-09-08 13:52:00,72.0,69.0,29.91,East,101,4.0,10.0,89,0.00,,,0.00,,2013-09-08 18:52:00,
2013-09-08 14:12:00,72.0,69.0,29.87,SE,126,6.0,12.0,91,0.01,,,0.01,,2013-09-08 19:12:00,
2013-09-08 14:22:00,72.0,69.0,29.91,ESE,114,1.0,11.0,90,0.01,,,0.01,,2013-09-08 19:22:00,
2013-09-08 14:42:00,72.0,69.0,29.90,ESE,105,4.0,7.0,91,0.01,,,0.01,,2013-09-08 19:42:00,
2013-09-08 14:52:00,72.0,69.0,29.89,ESE,110,2.0,7.0,91,0.01,,,0.01,,2013-09-08 19:52:00,
2013-09-08 15:11:00,72.0,69.0,29.88,ENE,77,4.0,8.0,89,0.00,,,0.01,,2013-09-08 20:11:00,
2013-09-08 15:22:00,72.0,69.0,29.88,ESE,102,4.0,8.0,89,0.00,,,0.01,,2013-09-08 20:22:00,
2013-09-08 15:42:00,72.0,69.0,29.88,East,89,3.0,6.0,89,0.00,,,0.01,,2013-09-08 20:42:00,
2013-09-08 15:53:00,72.0,68.0,29.88,East,89,3.0,5.0,88,0.00,,,0.01,,2013-09-08 20:53:00,
2013-09-08 16:12:00,72.0,69.0,29.87,East,86,2.0,5.0,89,0.00,,,0.01,,2013-09-08 21:12:00,
2013-09-08 16:22:00,72.0,68.0,29.87,ESE,102,4.0,7.0,88,0.00,,,0.01,,2013-09-08 21:22:00,
2013-09-08 16:43:00,73.0,69.0,29.86,SE,129,3.0,8.0,88,0.00,,,0.01,,2013-09-08 21:43:00,
2013-09-08 16:54:00,72.0,68.0,29.85,ESE,107,3.0,6.0,88,0.00,,,0.01,,2013-09-08 21:54:00,
2013-09-08 17:13:00,72.0,68.0,29.85,SE,132,2.0,6.0,88,0.00,,,0.01,,2013-09-08 22:13:00,
2013-09-08 17:24:00,73.0,69.0,29.85,ENE,72,2.0,7.0,87,0.00,,,0.01,,2013-09-08 22:24:00,
2013-09-08 17:43:00,73.0,69.0,29.85,SE,136,2.0,7.0,87,0.00,,,0.01,,2013-09-08 22:43:00,
2013-09-08 17:53:00,72.0,68.0,29.85,SSE,150,3.0,5.0,88,0.00,,,0.01,,2013-09-08 22:53:00,
2013-09-08 18:12:00,72.0,68.0,29.85,SSE,148,3.0,6.0,87,0.00,,,0.01,,2013-09-08 23:12:00,
2013-09-08 18:22:00,72.0,68.0,29.84,SE,134,2.0,5.0,88,0.00,,,0.01,,2013-09-08 23:22:00,
2013-09-08 18:42:00,72.0,68.0,29.84,SE,130,2.0,8.0,88,0.00,,,0.01,,2013-09-08 23:42:00,
2013-09-08 18:52:00,72.0,68.0,29.84,ESE,121,2.0,5.0,88,0.00,,,0.01,,2013-09-08 23:52:00,
2013-09-08 19:11:00,72.0,68.0,29.84,SSE,161,2.0,6.0,88,0.00,,,0.01,,2013-09-09 00:11:00,
2013-09-08 19:22:00,72.0,68.0,29.83,SSE,157,3.0,8.0,88,0.00,,,0.01,,2013-09-09 00:22:00,
2013-09-08 19:42:00,72.0,68.0,29.83,SE,127,2.0,6.0,88,0.00,,,0.01,,2013-09-09 00:42:00,
2013-09-08 19:52:00,72.0,68.0,29.83,ESE,111,1.0,5.0,88,0.00,,,0.01,,2013-09-09 00:52:00,
2013-09-08 20:12:00,72.0,69.0,29.83,East,82,0.0,2.0,89,0.00,,,0.01,,2013-09-09 01:12:00,
2013-09-08 20:21:00,72.0,69.0,29.83,ENE,76,0.0,2.0,90,0.00,,,0.01,,2013-09-09 01:21:00,
2013-09-08 20:42:00,71.0,68.0,29.83,East,98,0.0,2.0,91,0.00,,,0.01,,2013-09-09 01:42:00,
2013-09-08 20:52:00,71.0,68.0,29.83,East,88,1.0,3.0,91,0.00,,,0.01,,2013-09-09 01:52:00,
2013-09-08 21:11:00,71.0,68.0,29.83,NE,49,3.0,5.0,91,0.00,,,0.01,,2013-09-09 02:11:00,
2013-09-08 21:22:00,71.0,68.0,29.83,East,85,2.0,7.0,90,0.00,,,0.01,,2013-09-09 02:22:00,
2013-09-08 21:42:00,70.0,67.0,29.83,East,95,4.0,7.0,91,0.00,,,0.01,,2013-09-09 02:42:00,
2013-09-08 21:52:00,69.0,67.0,29.83,East,79,2.0,5.0,93,0.00,,,0.01,,2013-09-09 02:52:00,
2013-09-08 22:12:00,69.0,67.0,29.83,ESE,118,2.0,5.0,93,0.00,,,0.01,,2013-09-09 03:12:00,
2013-09-08 22:22:00,69.0,67.0,29.83,East,96,2.0,7.0,93,0.00,,,0.01,,2013-09-09 03:22:00,
2013-09-08 22:44:00,68.0,66.0,29.84,ESE,102,2.0,6.0,93,0.00,,,0.01,,2013-09-09 03:44:00,
2013-09-08 22:55:00,68.0,66.0,29.83,East,91,2.0,5.0,94,0.00,,,0.01,,2013-09-09 03:55:00,
2013-09-08 23:14:00,68.0,66.0,29.83,East,97,1.0,5.0,94,0.00,,,0.01,,2013-09-09 04:14:00,
2013-09-08 23:24:00,67.0,66.0,29.83,ESE,106,2.0,5.0,95,0.00,,,0.01,,2013-09-09 04:24:00,
2013-09-08 23:43:00,67.0,66.0,29.83,ENE,74,1.0,5.0,95,0.00,,,0.01,,2013-09-09 04:43:00,
2013-09-08 23:54:00,67.0,66.0,29.83,East,96,2.0,5.0,95,0.00,,,0.01,,2013-09-09 04:54:00,